Flight Track Log - Related Links

Times and Time Zones

All times are in EDT time to prevent confusion due to time zone crossing. See the SWA1821 flight status page for this flight to view local times or setup timezone preferences in your user account.

Time Position Orientation Groundspeed Altitude Reporting Facility
EDT Latitude Longitude Course Direction KTS MPH feet Rate Location/Type
18:19 39.1833 -76.7333 270° West 193 222 3,000  Level Potomac TRACON
18:20 39.1833 -76.8167 270° West 248 285 6,800 4,810 Climbing Potomac TRACON
18:21 39.2167 -76.9167 293° West 230 265 13,100 3,618 Climbing Potomac TRACON
18:23 39.1708 -77.0989 252° West 270 311 18,800 2,829 Climbing Washington Center
18:24 39.1072 -77.1750 223° Southwest 288 331 22,200 2,100 Climbing Washington Center
18:25 39.0806 -77.2894 253° West 315 362 23,000 650 Climbing Washington Center
18:26 39.0519 -77.4011 252° West 328 377 23,500 1,600 Climbing Washington Center
18:27 39.0253 -77.5100 253° West 328 377 26,200 2,600 Climbing Washington Center
18:28 38.9983 -77.6269 254° West 333 383 28,700 2,600 Climbing Washington Center
18:29 38.9647 -77.7567 252° West 345 397 31,400 2,300 Climbing Washington Center
18:30 38.9356 -77.8786 253° West 350 403 33,300 1,800 Climbing Washington Center
18:31 38.9061 -77.9978 252° West 350 403 35,000 1,350 Climbing Washington Center
18:32 38.8764 -78.1169 252° West 356 410 36,000 500 Climbing Washington Center
18:33 38.8531 -78.2386 256° West 356 410 36,000  Level Washington Center
18:34 38.8503 -78.3664 268° West 356 410 36,000  Level Washington Center
18:35 38.8492 -78.4917 269° West 356 410 36,000  Level Washington Center
18:36 38.8483 -78.6169 270° West 356 410 36,000  Level Washington Center
18:37 38.8472 -78.7422 269° West 356 410 36,000  Level Washington Center
18:38 38.8417 -78.8647 267° West 356 410 36,000  Level Washington Center
18:39 38.8300 -78.9867 263° West 351 404 36,000  Level Washington Center
18:40 38.8200 -79.1142 264° West 351 404 36,000  Level Washington Center
18:41 38.8103 -79.2389 264° West 351 404 36,000  Level Washington Center
18:42 38.8000 -79.3664 264° West 356 410 36,000 300 Level Washington Center
18:43 38.7897 -79.4908 264° West 356 410 36,600 950 Climbing Washington Center
18:44 38.7831 -79.6264 266° West 374 430 37,900 700 Climbing Washington Center
18:45 38.7725 -79.7589 264° West 374 430 38,000 50 Climbing Washington Center
18:46 38.7594 -79.8914 263° West 381 438 38,000  Level Washington Center
18:47 38.7464 -80.0211 263° West 381 438 38,000  Level Washington Center
18:48 38.7358 -80.1375 263° West 381 438 38,000 300 Level Washington Center
18:49 38.7225 -80.2672 263° West 381 438 38,600 711 Climbing Washington Center
18:50 38.7197 -80.2842 258° West 366 421 38,900 1,091 Climbing Indianapolis Center
18:51 38.7058 -80.4386 263° West 363 418 40,000 541 Climbing Indianapolis Center
18:52 38.6928 -80.5675 263° West 365 420 40,000  Level Indianapolis Center
18:53 38.6811 -80.6972 263° West 366 421 40,000  Level Indianapolis Center
18:54 38.6686 -80.8264 263° West 365 420 40,000  Level Indianapolis Center
18:55 38.6558 -80.9558 263° West 366 421 40,000  Level Indianapolis Center
18:56 38.6433 -81.0836 263° West 363 418 40,000 -344 Level Indianapolis Center
18:57 38.6294 -81.2114 262° West 362 417 39,300 -829 Descending Indianapolis Center
18:58 38.6158 -81.3428 262° West 369 425 38,300 -1,024 Descending Indianapolis Center
18:59 38.6006 -81.4900 262° West 363 418 37,200 -1,033 Descending Indianapolis Center
19:00 38.5875 -81.6200 263° West 364 419 36,200 -590 Descending Indianapolis Center
19:01 38.5758 -81.7392 263° West 367 422 36,000 -341 Descending Indianapolis Center
19:02 38.5619 -81.8681 262° West 364 419 35,500 -488 Descending Indianapolis Center
19:03 38.5486 -81.9939 262° West 357 411 35,000 -246 Descending Indianapolis Center
19:04 38.5350 -82.1181 262° West 353 406 35,000  Level Indianapolis Center
19:05 38.5211 -82.2403 262° West 350 403 35,000  Level Indianapolis Center
19:06 38.5081 -82.3617 262° West 345 397 35,000  Level Indianapolis Center
19:07 38.4931 -82.4919 262° West 345 397 35,000  Level Indianapolis Center
19:08 38.4797 -82.6128 262° West 345 397 35,000 -295 Level Indianapolis Center
19:09 38.4636 -82.7547 262° West 348 400 34,400 -787 Descending Indianapolis Center
19:10 38.4494 -82.8761 262° West 347 399 33,400 -1,171 Descending Indianapolis Center
19:11 38.4358 -82.9928 262° West 335 386 32,000 -683 Descending Indianapolis Center
19:12 38.4211 -83.1122 261° West 340 391 32,000  Level Indianapolis Center
19:13 38.4075 -83.2339 262° West 346 398 32,000  Level Indianapolis Center
19:14 38.3928 -83.3544 261° West 346 398 32,000  Level Indianapolis Center
19:15 38.3778 -83.4761 261° West 347 399 32,000  Level Indianapolis Center
19:16 38.3628 -83.5986 261° West 349 402 32,000  Level Indianapolis Center
19:17 38.3475 -83.7197 261° West 348 400 32,000  Level Indianapolis Center
19:18 38.3303 -83.8625 261° West 350 403 32,000  Level Indianapolis Center
19:19 38.3142 -83.9847 261° West 351 404 32,000 -639 Level Indianapolis Center
19:20 38.2992 -84.1058 261° West 349 402 30,700 -1,820 Descending Indianapolis Center
19:21 38.2844 -84.2233 261° West 339 390 28,300 -2,361 Descending Indianapolis Center
19:22 38.2689 -84.3406 260° West 337 388 25,900 -2,311 Descending Indianapolis Center
19:23 38.2556 -84.4528 261° West 324 373 23,600 -2,213 Descending Indianapolis Center
19:24 38.2403 -84.5597 260° West 307 353 21,400 -2,164 Descending Indianapolis Center
19:25 38.2269 -84.6644 261° West 300 345 19,200 -2,066 Descending Indianapolis Center
19:26 38.2128 -84.7650 260° West 292 336 17,200 -2,016 Descending Indianapolis Center
19:27 38.2008 -84.8625 261° West 282 325 15,100 -2,066 Descending Indianapolis Center
19:28 38.1861 -84.9633 260° West 287 330 13,000 -1,967 Descending Indianapolis Center
19:29 38.1717 -85.0764 261° West 281 323 11,100 -1,230 Descending Indianapolis Center
19:30 38.1578 -85.1650 259° West 262 302 10,500 -1,082 Descending Indianapolis Center
19:31 38.1481 -85.2400 261° West 243 280 8,900 -1,642 Descending Indianapolis Center
19:32 38.1428 -85.2906 262° West 239 275 7,900 -1,111 Descending FAA TRACON SMA TRACON (SMA)
19:32 38.1425 -85.3217 269° West 234 269 7,900  Level FAA TRACON SMA TRACON (SMA)
19:33 38.1522 -85.3436 299° West 235 270 7,900  Level FAA TRACON SMA TRACON (SMA)
19:33 38.1619 -85.3656 299° West 233 268 7,900 -600 Level FAA TRACON SMA TRACON (SMA)
19:33 38.1744 -85.3931 300° West 234 269 7,500 -1,350 Descending FAA TRACON SMA TRACON (SMA)
19:34 38.1847 -85.4153 300° West 237 273 7,000 -1,350 Descending FAA TRACON SMA TRACON (SMA)
19:34 38.1942 -85.4375 298° West 234 269 6,600 -1,500 Descending FAA TRACON SMA TRACON (SMA)
19:34 38.2061 -85.4653 299° West 233 268 6,000 -2,100 Descending FAA TRACON SMA TRACON (SMA)
19:35 38.2153 -85.4883 297° West 236 272 5,200 -2,100 Descending FAA TRACON SMA TRACON (SMA)
19:35 38.2244 -85.5128 296° West 245 282 4,600 -1,846 Descending FAA TRACON SMA TRACON (SMA)
19:35 38.2372 -85.5431 298° West 254 292 4,000 -1,050 Descending FAA TRACON SMA TRACON (SMA)
19:36 38.2472 -85.5678 297° West 255 293 3,900 -146 Descending FAA TRACON SMA TRACON (SMA)
19:36 38.2567 -85.5903 298° West 242 278 3,900  Level FAA TRACON SMA TRACON (SMA)
19:36 38.2683 -85.6167 299° West 225 259 3,900  Level FAA TRACON SMA TRACON (SMA)
19:37 38.2772 -85.6378 298° West 218 251 3,900 -450 Level FAA TRACON SMA TRACON (SMA)
19:37 38.2883 -85.6628 300° West 213 245 3,600 -900 Descending FAA TRACON SMA TRACON (SMA)
19:37 38.2967 -85.6833 297° West 212 244 3,300 -750 Descending FAA TRACON SMA TRACON (SMA)
19:38 38.2964 -85.7056 269° West 214 246 3,100 -750 Descending FAA TRACON SMA TRACON (SMA)
19:38 38.2917 -85.7306 256° West 193 222 2,800 -1,050 Descending FAA TRACON SMA TRACON (SMA)
19:38 38.2853 -85.7475 244° Southwest 181 208 2,400 -900 Descending FAA TRACON SMA TRACON (SMA)
19:39 38.2725 -85.7561 208° Southwest 176 203 2,200 -750 Descending FAA TRACON SMA TRACON (SMA)
19:39 38.2564 -85.7547 176° South 158 182 1,900 -900 Descending FAA TRACON SMA TRACON (SMA)
19:39 38.2444 -85.7511 167° South 146 168 1,600 -750 Descending FAA TRACON SMA TRACON (SMA)
19:40 38.2328 -85.7469 164° South 139 160 1,400 -750 Descending FAA TRACON SMA TRACON (SMA)
19:40 38.2186 -85.7422 165° South 136 157 1,100 -750 Descending FAA TRACON SMA TRACON (SMA)
19:40 38.2075 -85.7383 165° South 136 157 900 -600 Descending FAA TRACON SMA TRACON (SMA)
19:41 38.1964 -85.7344 165° South 133 153 700 -600 Descending FAA TRACON SMA TRACON (SMA)

Login

Don't have an account? Register now (free) for customized features, flight alerts, and more!